User: anonymous   Login
Location: Syracuse
(43.0480°N, 76.1480°W)
Time: 09:07:51
(UTC-04:00)
Language:

Cosmos 1140 Rocket - Orbit

View from above orbital plane
View from above orbital plane
View from above satellite
View from above satellite

Ground track
Ground track

The orbit data is extracted from the following two-line orbital elements,

1 11574U 79089B   16120.52601899  .00000092  00000-0  37160-4 0  9993
2 11574  74.0692 262.5527 0016907 272.7463  87.1757 14.40567021917575
Epoch (UTC): 29 April 2016 12:37:28
Eccentricity: 0.0016907
inclination: 74.0692°
perigee height: 744 km
apogee height: 768 km
right ascension of ascending node: 262.5527°
argument of perigee: 272.7463°
revolutions per day: 14.40567021
mean anomaly at epoch: 87.1757°
orbit number at epoch: 91757

The dashed part of the orbit path shows where the satellite is in the earth's shadow,  

DLR